User: anonymous   Login
Location: Unspecified
(0.0000°N, 0.0000°E)
Time: 09:17:47
(UTC+00:00)
Language:

Orbcomm A3 (FM07) - Orbit

View from above orbital plane
View from above orbital plane
View from above satellite
View from above satellite

Ground track
Ground track

The orbit data is extracted from the following two-line orbital elements,

1 25119U 97084H   18109.76351040 +.00000111 +00000-0 +82048-4 0  9990
2 25119 045.0158 213.6380 0001857 028.1972 331.8976 14.38716657064438
Epoch (UTC): 19 April 2018 18:19:27
Eccentricity: 0.0001857
inclination: 45.0158°
perigee height: 761 km
apogee height: 764 km
right ascension of ascending node: 213.6380°
argument of perigee: 28.1972°
revolutions per day: 14.38716657
mean anomaly at epoch: 331.8976°
orbit number at epoch: 6443

The dashed part of the orbit path shows where the satellite is in the earth's shadow,  

DLR